Regional Weather Roundup
Issued by NWS

Home | Current Version | Previous Version | Text Only | Print | Product List | Glossary Off
Versions: 1 2 3 4 5 6 7 8 9 10 11 12 13 14 15 16 17 18 19 20 21 22 23 24 25 26 27 28 29 30 31 32 33 34 35 36 37 38 39 40 41 42 43 44 45 46 47 48 49 50

000
ASUS43 KBIS 090710
RWRND

NORTH DAKOTA REGIONAL WEATHER ROUNDUP
NATIONAL WEATHER SERVICE BISMARCK ND
100 AM CST TUE FEB 09 2016

NOTE: "FAIR" INDICATES FEW OR NO CLOUDS BELOW 12,000 FEET WITH NO
SIGNIFICANT WEATHER AND/OR OBSTRUCTIONS TO VISIBILITY.


NDZ001>003-009>011-017-090800-
NORTHWEST NORTH DAKOTA

CITY           SKY/WX    TMP DP  RH WIND       PRES   REMARKS
WILLISTON      CLOUDY    29  23  78 S5        30.24F
MINOT          CLOUDY    25  12  58 SW5       30.26S WCI  19
MINOT AFB      CLOUDY    23  18  81 CALM      30.26S
$$

NDZ018>021-031>035-040>046-090800-
SOUTHWEST NORTH DAKOTA

CITY           SKY/WX    TMP DP  RH WIND       PRES   REMARKS
BISMARCK       CLOUDY    26  13  57 N9        30.28R WCI  17
DICKINSON      CLOUDY    28  17  63 N5        30.22R
GARRISON         N/A     23  14  68 N8        30.27R WCI  14
HETTINGER ARPT CLOUDY    28  16  60 NW3       30.23F
$$

NDZ004>008-012>016-024-026-027-054-090800-
NORTHEAST NORTH DAKOTA

CITY           SKY/WX    TMP DP  RH WIND       PRES   REMARKS
GRAND FORKS    CLEAR      5  -1  76 NW9       30.26R WCI  -9
GRND FRKS AFB  CLEAR      4  -2  76 NW7       30.26R WCI  -8
DEVILS LAKE    CLOUDY     6   3  87 NW7       30.25S WCI  -6
$$

NDZ022-023-025-028>030-036>039-047>053-090800-
SOUTHEAST NORTH DAKOTA

CITY           SKY/WX    TMP DP  RH WIND       PRES   REMARKS
FARGO          CLEAR      7   0  73 N16       30.23R WCI -11
JAMESTOWN      CLEAR      9   5  84 N8        30.24R WCI  -3
$$




USA.gov is the U.S. government's official web portal to all federal, state and local government web resources and services.